Weather in Perevoloki

Russia / Samara Oblast     53°14′54″N   49°10′30″E
temp.,
°C
wind,
m/s
gust,
m/s
humid.,
%
clouds,
%
prec.,
mm/h
press.,
hPa
HPBL,
m
4 march, thu
thu401:00−10wnw339247 0.0 100829
04:00−12wsw339541 0.0 100827
07:00−12sw459724 0.0 100794
10:00−5sw6129462 0.1 1006572
13:00−1sw81388100 0.1 1003922
16:000sw91692100 0.5 10011128
19:00+1wsw81589100 0.3 10001111
22:000wsw71489100 0.3 1002779
5 march, fri
fri501:00−1wsw51292100 0.1 1001523
04:00−2sw51294100 0.3 1001470
07:00−2sw51195100 0.1 1001381
10:000nw35100100 1.4 1002356
13:00−2n5692100 0.9 1003473
16:00−3n5788100 0.9 1006408
19:00−8n468893 0.0 100991
22:00−11n238557 0.0 101223
6 march, sat
sat601:00−13nnw118696 0.0 101221
04:00−14w119078 0.0 101321
07:00−13sw009094 0.0 101321
10:00−9ssw119097 0.0 101394
13:00−6w2389100 0.0 1012344
16:00−5nnw4688100 0.1 1011646
19:00−12n339462 0.0 101228
22:00−13nnw349331 0.0 101361
7 march, sun
sun701:00−17nw34900 0.0 101458
04:00−19nw34939 0.0 101543
07:00−21nw23940 0.0 101620
10:00−16sw23900 0.0 1017166
13:00−12ssw469111 0.0 1015288
16:00−11s610907 0.0 1013446
19:00−10s71495100 0.1 1010525
22:00−7ssw91688100 0.3 1007745
8 march, mon
mon801:00−5ssw101795100 1.3 10021098
04:00−5sw101791100 2.4 999970
07:00−4sw91691100 0.3 999889
10:00−5wsw5108295 0.4 1001558
13:00−4wsw7117363 0.0 10011206
16:00−4wsw7118377 0.4 10031148
19:00−8wsw478998 0.2 1005116
22:00−12w458561 0.2 100887